Starlink 11076

operational
NORAD ID: 58709 Int'l Des: 2024-002 Owner: SPXS Country: US Constellation: starlink
LEOCIRCULAR

About Starlink 11076

Description loading...

Live Position

Loading 3D Globe...

Upcoming Passes

Altitude History

Altitude vs Time

uPlot chart will show altitude changes over time

Two-Line Element Set

1 58709U 24002E 25303.89787358 -.00002070 00000-0 -12226-4 0 9993
2 58709 53.1600 193.7331 0001132 117.1244 242.9889 15.69722786106057
Epoch: Oct 30, 2025 • Age: 19 hours

Current Status

Altitude 362.6 km
Velocity 7.70 km/s
Sub-Earth Point 38.15°N, 55.95°W
Launch Date Jan 3, 2024
Age 1.8 years
Type internet

Technical Details

Classification Payload
Mass 960.00 kg
Dry Mass 910.00 kg
Total Mass 960.00 kg
Length 0.30 m
Diameter 4.10 m
Span 29.00 m
Shape Box + pan
Manufacturer SPXS
Bus Type Starlink V2MD
Phase Status In Orbit
Owner/State SPXS/US

Large Constellations

Loading constellations...